Погода в Тиджикже

Мавритания     18°33′22″N   11°25′37″W
темп.,
°C
ветер,
м/с
пор.,
м/с
влажн.,
%
обл.,
%
осадки,
мм/ч
давл.,
гПа
погр.,
м
4 декабря, сб
сб400:00+22всв61117100 0.0 1014179
03:00+21в61217100 0.0 1013184
06:00+20в61118100 0.0 1014169
09:00+23в8111585 0.0 1016339
12:00+29в881181 0.0 1015787
15:00+31в669100 0.0 10121162
18:00+28всв5611100 0.0 101356
21:00+24всв6101390 0.0 1016143
5 декабря, вс
вс500:00+23в71314100 0.0 1016238
03:00+22в61216100 0.0 1015245
06:00+21всв61117100 0.0 1016217
09:00+22в81214100 0.0 1017354
12:00+27в8911100 0.0 1016669
15:00+29всв7711100 0.0 10141024
18:00+26всв7913100 0.0 1015262
21:00+23всв71114100 0.0 1017331
6 декабря, пн
пн600:00+21всв6111499 0.0 1017265
03:00+20всв61113100 0.0 1015229
06:00+18всв61113100 0.0 1016181
09:00+20в81110100 0.0 1017348
12:00+26всв897100 0.0 1016676
15:00+26всв677100 0.0 1014789
18:00+24всв698100 0.0 1015192
21:00+22всв61210100 0.0 1017242
7 декабря, вт
вт700:00+20всв6121273 0.0 1017210
03:00+18в7131497 0.0 1016207
06:00+17в7131594 0.0 1016190
09:00+20в81312100 0.0 1017379
12:00+26в89748 0.0 1016681
15:00+29всв67571 0.0 10131035
18:00+25всв56727 0.0 101454
21:00+22всв5109100 0.0 1016125
8 декабря, ср
ср800:00+21всв61111100 0.0 1016208
03:00+20всв61313100 0.0 1015237
06:00+19всв71415100 0.0 1015231
09:00+21всв81314100 0.0 1017424
12:00+26всв8910100 0.0 1016735
15:00+28всв788100 0.0 1014940
18:00+25всв6910100 0.0 1014153
21:00+21всв5913100 0.0 1016104